{"data":{"norad_id":63551,"intl_designator":"2025-075D","name":"STARLINK-11695 [DTC]","alt_names":[],"object_type":"PAYLOAD","status":"ACTIVE","operator":null,"country":"US","launch_date":"2025-04-13","launch_site_code":"AFETR","launch_vehicle":null,"mission":null,"orbit_class":"UNKNOWN","rcs_meters":null,"size_class":null,"mass_kg":null,"dimensions":null,"purposes":["comms"],"wikipedia_slug":null,"has_3d_model":false,"image_url":null,"decayed_at":null,"tle_current":{"epoch":"2026-05-24T23:47:54.152736Z","epoch_age_seconds":69656,"freshness":"FRESH","line1":"1 63551U 25075D   26144.99159899  .00127411  00000+0  97947-3 0  9999","line2":"2 63551  43.0005  53.4565 0001927 259.5111 100.5539 15.70883661 65251","mean_motion":15.70883661,"eccentricity":0.0001927,"inclination_deg":43.0005,"raan_deg":53.4565,"arg_perigee_deg":259.5111,"mean_anomaly_deg":100.5539,"bstar":0.00097947,"rev_number":6525,"period_min":91.668150592598,"perigee_km":355.07253359811,"apogee_km":357.66801270118,"semimajor_km":6734.5072731496,"source":"CELESTRAK","updated_at":"2026-05-25T13:38:20.040766Z"}}}